SCOUT B DEB, 29279

Orbit data source: Space-Track

SCOUT B DEB, 29279 is space debris in LEO originally from a launch on Thu, 08 Aug 1968 UTC launched from the Air Force Western Test Range (AFWTR). Debris objects in space refer to the collection of defunct objects orbiting the Earth. Examples of debris include non-operational satellites, rocket bodies, and fragments generated from explosions, collisions, or faulty payload assembly.

Loading next visibility...
SCOUT B DEB details
Identifier
29279, 1968-066N
Orbit
LEO
Last TLE update2 months ago
Origin
Flag of USNASA LaRC (US)
ManufacturerUnknown
MissionSpacecraft
Bus & MotorUnknown
MassUnknown
Launch date (UTC)
1968-08-08 (56 years ago)
Launch vehicleUnknown
Launch site
Air Force Western Test Range (AFWTR)
Object type
Payload
Rocket body
Debris
Shape & HBRUnknown
Radar Cross SectionSmall (<0.1 m²)

Expand to show TLE details & history

TLE from 2 months ago
0 SCOUT B DEB
1 29279U 68066N   24292.39230666  .00010641  00000-0  53853-2 0  9997
2 29279  80.6012 160.1866 0554835  24.4627 338.1787 13.57417443198645
Epoch: 2024-10-18T09:24Z
Definitive object data (Epoch: 2024-10-18T09:24:55.295Z)
Latitude-0.00007°
Longitude-8.4065°
Altitude668.892 km
Speed7.712 km/s
True Right ascension10h 40m 44s
True Declination0° 00' 00"
Sunlit
Object was in daylight at TLE epoch
Visualization TLE readout
Latitude61.95289°
Longitude-52.09249°
Altitude1,424.229 km
Speed6.972 km/s
Apparent Right ascension02h 12m 34s
Apparent Declination37° 06' 35"
Sunlit
Object is in daylight
Visualization observer readout
Local Sidereal Time10:59:47
Azimuth323.514° NNW
Elevation-1.177°
Doppler factor1
Orbital elements
Apogee altitude1,454.071 km
Perigee altitude630.641 km
Semi-major axis7,420.493 km
Eccentricity0.0554835
Inclination80.6012°
RAAN160.1866°
Arg. of periapsis24.4627°
True anomaly335.65405°
Mean anomaly338.1787°
Eccentric anomaly336.93316°
Mean motion3.39542 °/min
BSTAR0.0053853
Orbital period106.03 mins
Loading maneuver chart data...
Loading historical data...
Loading historical data...
Loading historical data...
Loading historical data...
Loading historical data...
Loading historical data...
Loading historical data...

SCOUT B DEB Visibility forecast

Observer location: undefined°, undefined

Span
Click to sort rows by Start time (UTC) header in descending order
Start Az.
Max El. time (UTC)
Max El. Az.
Max El.
End time (UTC)
End Az.
9 mins2024-12-21 17:33:03.641Z14.482° NNE2024-12-21 17:38:03.641Z62.556° ENE20.637°2024-12-21 17:42:03.641Z109.147° ESE
10 mins2024-12-21 19:21:03.641Z337.122° NNW2024-12-21 19:26:03.641Z257.617° W38.761°2024-12-21 19:31:03.641Z191.481° SSW
14 mins2024-12-22 07:10:03.641Z161.211° S2024-12-22 07:17:03.641Z85.622° E38.333°2024-12-22 07:24:03.641Z21.819° NNE
13 mins2024-12-22 08:58:03.641Z232.136° WSW2024-12-22 09:04:03.641Z289.417° WNW31.304°2024-12-22 09:11:03.641Z352.204° N
|